Flag for U.S.A. Weather past 2 weeks in Topeka, Kansas, U.S.A.

Now
75 °F

Clear.


Feels Like: 78 °F
Forecast: 63 / 79 °F
Wind: 9 mph from South

Location: Philip Billard Municipal Airport

Current Time: May 3, 2015 at 11:04:39 PM

Latest Report: May 3, 2015 at 9:53 PM


Visibility: 10 mi

Pressure: 29.84 "Hg

Humidity: 52%

Dew point: 56 °F

Location of TopekaLocation

Historic Weather in Topeka — Graph

°F

Topeka temperature yesterday

Maximum temperature yesterday: 78 °F (at 4:53 PM)
Minimum temperature yesterday: 56 °F (at 5:53 AM)
Average temperature yesterday: 66 °F

Past Weeks' High & Low Weather Summary

 TemperatureHumidityPressure
High85 °F (May 3, 4:53 PM)97% (Apr 19, 4:53 AM)30.20 "Hg (Apr 19, 4:53 AM)
Low38 °F (Apr 21, 5:53 AM)20% (Apr 21, 4:53 PM)29.37 "Hg (Apr 25, 3:53 AM)
Average58 °F59%29.91 "Hg
* Reported Apr 18 9:53 PM — May 3 9:53 PM, Topeka, Weather by CustomWeather, © 2015

Note: Actual official high and low records may vary slightly from our data, if they occured in-between our weather recording intervals... More about our weather records

Advertising

Topeka weather history for previous 24 hours

 ConditionsComfort  
Time TempWeatherWind HumidityBarometerVisibility
9:53 PM
Sun, May 3
75 °FClear.9 mph52%29.84 "Hg10 mi
8:53 PM77 °FSunny.10 mph50%29.81 "Hg10 mi
7:53 PM80 °FSunny.12 mph44%29.79 "Hg10 mi
6:53 PM83 °FSunny.18 mph40%29.77 "Hg10 mi
5:53 PM85 °FSunny.15 mph39%29.76 "Hg10 mi
4:53 PM85 °FSunny.18 mph39%29.75 "Hg10 mi
3:53 PM82 °FSunny.17 mph44%29.78 "Hg10 mi
2:53 PM82 °FSunny.14 mph44%29.78 "Hg10 mi
1:53 PM81 °FSunny.16 mph45%29.79 "Hg10 mi
12:53 PM79 °FSunny.20 mph48%29.81 "Hg10 mi
11:53 AM77 °FSunny.17 mph50%29.81 "Hg10 mi
10:53 AM74 °FSunny.16 mph56%29.81 "Hg10 mi
9:53 AM70 °FSunny.22 mph64%29.82 "Hg10 mi
8:53 AM66 °FSunny.14 mph70%29.83 "Hg10 mi
7:53 AM64 °FScattered clouds.14 mph75%29.82 "Hg10 mi
6:53 AM64 °FPassing clouds.9 mph75%29.82 "Hg10 mi
5:53 AM63 °FPassing clouds.12 mph81%29.83 "Hg10 mi
4:53 AM64 °FThundershowers. Overcast.7 mph78%29.85 "Hg9 mi
3:53 AM68 °FThunderstorms. Passing clouds.10 mph61%29.84 "Hg10 mi
2:53 AM67 °FClear.5 mph61%29.82 "Hg10 mi
1:53 AM65 °FClear.5 mph66%29.85 "Hg10 mi
12:53 AM67 °FClear.8 mph61%29.84 "Hg10 mi
11:53 PM
Sat, May 2
68 °FClear.9 mph61%29.84 "Hg10 mi
Weather by CustomWeather, © 2015

See weather overviewHow to use our weather pages